{"data":{"norad_id":58387,"epoch":"2026-05-25T00:17:52.579104Z","epoch_age_seconds":67167,"freshness":"FRESH","line1":"1 58387U 23178P   26145.01241411  .00000785  00000+0  34374-4 0  9998","line2":"2 58387  53.1613   5.9479 0001315  90.0021 270.1132 15.34389740141587","mean_motion":15.3438974,"eccentricity":0.0001315,"inclination_deg":53.1613,"raan_deg":5.9479,"arg_perigee_deg":90.0021,"mean_anomaly_deg":270.1132,"bstar":3.4374e-5,"rev_number":14158,"period_min":93.848385612902,"perigee_km":461.83416075754,"apogee_km":463.63330976091,"semimajor_km":6840.8707352592,"source":"CELESTRAK","updated_at":"2026-05-25T13:38:18.614624Z"}}